Time,TemperatureF,DewpointF,PressureIn,WindDirection,WindDirectionDegrees,WindSpeedMPH,WindSpeedGustMPH,Humidity,HourlyPrecipIn,Conditions,Clouds,dailyrainin,SoftwareType,DateUTC
2013-05-03 00:01:00,54.7,44.7,30.25,NE,36,0.0,0.0,69,0.00,,,0.00,Wunderground v.1.15,2013-05-03 04:01:00,
2013-05-03 00:07:00,54.3,45.1,30.25,NE,36,0.0,0.0,71,0.00,,,0.00,Wunderground v.1.15,2013-05-03 04:07:00,
2013-05-03 00:09:00,54.1,44.5,30.25,NE,36,0.0,0.0,70,0.00,,,0.00,Wunderground v.1.15,2013-05-03 04:09:00,
2013-05-03 00:13:00,53.9,44.3,30.26,NE,36,0.0,0.0,70,0.00,,,0.00,Wunderground v.1.15,2013-05-03 04:13:00,
2013-05-03 00:19:00,53.6,44.8,30.27,NE,39,0.0,2.0,72,0.00,,,0.00,Wunderground v.1.15,2013-05-03 04:19:00,
2013-05-03 00:25:00,53.3,44.9,30.27,NE,39,0.0,2.0,73,0.00,,,0.00,Wunderground v.1.15,2013-05-03 04:25:00,
2013-05-03 00:31:00,53.3,44.1,30.27,SE,125,0.0,0.0,71,0.00,,,0.00,Wunderground v.1.15,2013-05-03 04:31:00,
2013-05-03 00:37:00,54.0,44.4,30.27,SE,132,0.0,2.0,70,0.00,,,0.00,Wunderground v.1.15,2013-05-03 04:37:00,
2013-05-03 00:43:00,55.1,45.1,30.27,East,84,1.0,3.0,69,0.00,,,0.00,Wunderground v.1.15,2013-05-03 04:43:00,
2013-05-03 00:49:00,57.1,45.8,30.27,ESE,109,2.0,2.0,66,0.00,,,0.00,Wunderground v.1.15,2013-05-03 04:49:00,
2013-05-03 00:55:00,59.1,46.5,30.28,ESE,115,2.0,2.0,63,0.00,,,0.00,Wunderground v.1.15,2013-05-03 04:55:00,
2013-05-03 01:01:00,60.6,47.1,30.27,East,91,2.0,2.0,61,0.00,,,0.00,Wunderground v.1.15,2013-05-03 05:01:00,
2013-05-03 01:07:00,61.4,46.9,30.27,East,92,2.0,2.0,59,0.00,,,0.00,Wunderground v.1.15,2013-05-03 05:07:00,
2013-05-03 01:13:00,62.0,46.6,30.27,NE,55,3.0,5.0,57,0.00,,,0.00,Wunderground v.1.15,2013-05-03 05:13:00,
2013-05-03 01:19:00,62.1,46.2,30.28,NE,56,4.0,4.0,56,0.00,,,0.00,Wunderground v.1.15,2013-05-03 05:19:00,
2013-05-03 01:25:00,62.1,46.2,30.28,SE,140,4.0,9.0,56,0.00,,,0.00,Wunderground v.1.15,2013-05-03 05:25:00,
2013-05-03 01:31:00,61.9,45.1,30.28,South,191,4.0,21.0,54,0.00,,,0.00,Wunderground v.1.15,2013-05-03 05:31:00,
2013-05-03 01:37:00,61.5,44.7,30.28,East,92,5.0,21.0,54,0.00,,,0.00,Wunderground v.1.15,2013-05-03 05:37:00,
2013-05-03 01:43:00,61.3,45.0,30.29,East,84,4.0,6.0,55,0.00,,,0.00,Wunderground v.1.15,2013-05-03 05:43:00,
2013-05-03 01:49:00,61.1,44.8,30.29,ENE,74,3.0,3.0,55,0.00,,,0.00,Wunderground v.1.15,2013-05-03 05:49:00,
2013-05-03 01:55:00,60.8,44.5,30.28,SE,136,3.0,3.0,55,0.00,,,0.00,Wunderground v.1.15,2013-05-03 05:55:00,
2013-05-03 02:01:00,60.5,44.7,30.29,SE,134,3.0,6.0,56,0.00,,,0.00,Wunderground v.1.15,2013-05-03 06:01:00,
2013-05-03 02:07:00,60.1,44.3,30.28,East,97,3.0,6.0,56,0.00,,,0.00,Wunderground v.1.15,2013-05-03 06:07:00,
2013-05-03 02:13:00,59.8,44.1,30.29,SSE,149,3.0,6.0,56,0.00,,,0.00,Wunderground v.1.15,2013-05-03 06:13:00,
2013-05-03 02:19:00,59.6,44.3,30.29,SSE,163,3.0,5.0,57,0.00,,,0.00,Wunderground v.1.15,2013-05-03 06:19:00,
2013-05-03 02:25:00,59.3,44.1,30.30,SE,136,3.0,5.0,57,0.00,,,0.00,Wunderground v.1.15,2013-05-03 06:25:00,
2013-05-03 02:31:00,59.1,43.9,30.30,ESE,109,3.0,3.0,57,0.00,,,0.00,Wunderground v.1.15,2013-05-03 06:31:00,
2013-05-03 02:37:00,58.9,43.7,30.30,North,5,3.0,3.0,57,0.00,,,0.00,Wunderground v.1.15,2013-05-03 06:37:00,
2013-05-03 02:43:00,58.6,43.9,30.30,SSE,162,3.0,3.0,58,0.00,,,0.00,Wunderground v.1.15,2013-05-03 06:43:00,
2013-05-03 02:49:00,58.3,43.6,30.30,NNE,28,4.0,4.0,58,0.00,,,0.00,Wunderground v.1.15,2013-05-03 06:49:00,
2013-05-03 02:55:00,58.2,43.5,30.30,SSE,154,3.0,10.0,58,0.00,,,0.00,Wunderground v.1.15,2013-05-03 06:55:00,
2013-05-03 03:01:00,58.1,43.4,30.30,ENE,78,2.0,2.0,58,0.00,,,0.00,Wunderground v.1.15,2013-05-03 07:01:00,
2013-05-03 03:07:00,57.8,43.6,30.30,NE,52,2.0,5.0,59,0.00,,,0.00,Wunderground v.1.15,2013-05-03 07:07:00,
2013-05-03 03:13:00,57.6,43.8,30.30,SE,128,3.0,5.0,60,0.00,,,0.00,Wunderground v.1.15,2013-05-03 07:13:00,
2013-05-03 03:19:00,57.6,43.8,30.30,SSW,194,3.0,7.0,60,0.00,,,0.00,Wunderground v.1.15,2013-05-03 07:19:00,
2013-05-03 03:25:00,57.7,43.9,30.30,NE,42,2.0,7.0,60,0.00,,,0.00,Wunderground v.1.15,2013-05-03 07:25:00,
2013-05-03 03:31:00,57.6,43.8,30.30,SE,134,2.0,2.0,60,0.00,,,0.00,Wunderground v.1.15,2013-05-03 07:31:00,
2013-05-03 03:37:00,57.7,43.5,30.31,ESE,111,3.0,4.0,59,0.00,,,0.00,Wunderground v.1.15,2013-05-03 07:37:00,
2013-05-03 03:43:00,57.9,44.1,30.31,SSE,148,4.0,7.0,60,0.00,,,0.00,Wunderground v.1.15,2013-05-03 07:43:00,
2013-05-03 03:49:00,57.8,44.0,30.31,SSE,156,3.0,5.0,60,0.00,,,0.00,Wunderground v.1.15,2013-05-03 07:49:00,
2013-05-03 03:55:00,57.8,44.0,30.31,NE,55,3.0,15.0,60,0.00,,,0.00,Wunderground v.1.15,2013-05-03 07:55:00,
2013-05-03 04:01:00,57.8,43.6,30.31,ESE,119,4.0,4.0,59,0.00,,,0.00,Wunderground v.1.15,2013-05-03 08:01:00,
2013-05-03 04:07:00,57.9,43.7,30.31,SE,146,4.0,5.0,59,0.00,,,0.00,Wunderground v.1.15,2013-05-03 08:07:00,
2013-05-03 04:13:00,57.8,43.6,30.31,ENE,72,3.0,11.0,59,0.00,,,0.00,Wunderground v.1.15,2013-05-03 08:13:00,
2013-05-03 04:19:00,57.7,43.5,30.32,NE,45,3.0,3.0,59,0.00,,,0.00,Wunderground v.1.15,2013-05-03 08:19:00,
2013-05-03 04:25:00,57.6,43.4,30.32,ESE,121,2.0,3.0,59,0.00,,,0.00,Wunderground v.1.15,2013-05-03 08:25:00,
2013-05-03 04:31:00,57.5,43.3,30.32,ENE,76,3.0,9.0,59,0.00,,,0.00,Wunderground v.1.15,2013-05-03 08:31:00,
2013-05-03 04:37:00,57.4,43.2,30.32,ESE,123,5.0,9.0,59,0.00,,,0.00,Wunderground v.1.15,2013-05-03 08:37:00,
2013-05-03 04:43:00,57.2,42.5,30.33,East,95,4.0,5.0,58,0.00,,,0.00,Wunderground v.1.15,2013-05-03 08:43:00,
2013-05-03 04:49:00,57.1,43.3,30.33,SE,145,4.0,5.0,60,0.00,,,0.00,Wunderground v.1.15,2013-05-03 08:49:00,
2013-05-03 04:55:00,56.9,42.3,30.33,SSE,147,4.0,7.0,58,0.00,,,0.00,Wunderground v.1.15,2013-05-03 08:55:00,
2013-05-03 05:01:00,56.9,42.7,30.33,SE,140,4.0,4.0,59,0.00,,,0.00,Wunderground v.1.15,2013-05-03 09:01:00,
2013-05-03 05:07:00,56.8,42.2,30.33,ESE,119,3.0,6.0,58,0.00,,,0.00,Wunderground v.1.15,2013-05-03 09:07:00,
2013-05-03 05:13:00,56.7,42.5,30.33,ESE,109,3.0,11.0,59,0.00,,,0.00,Wunderground v.1.15,2013-05-03 09:13:00,
2013-05-03 05:19:00,56.6,41.5,30.33,ENE,78,4.0,4.0,57,0.00,,,0.00,Wunderground v.1.15,2013-05-03 09:19:00,
2013-05-03 05:25:00,56.5,41.9,30.34,ENE,73,4.0,9.0,58,0.00,,,0.00,Wunderground v.1.15,2013-05-03 09:25:00,
2013-05-03 05:31:00,56.4,41.3,30.34,ESE,123,3.0,5.0,57,0.00,,,0.00,Wunderground v.1.15,2013-05-03 09:31:00,
2013-05-03 05:37:00,56.2,41.2,30.34,SE,134,2.0,6.0,57,0.00,,,0.00,Wunderground v.1.15,2013-05-03 09:37:00,
2013-05-03 05:43:00,56.0,41.0,30.35,SE,136,3.0,4.0,57,0.00,,,0.00,Wunderground v.1.15,2013-05-03 09:43:00,
2013-05-03 05:49:00,55.8,40.8,30.35,SSE,157,3.0,3.0,57,0.00,,,0.00,Wunderground v.1.15,2013-05-03 09:49:00,
2013-05-03 05:55:00,55.6,40.1,30.35,ENE,72,3.0,5.0,56,0.00,,,0.00,Wunderground v.1.15,2013-05-03 09:55:00,
2013-05-03 06:01:00,55.4,40.0,30.35,SSE,156,4.0,11.0,56,0.00,,,0.00,Wunderground v.1.15,2013-05-03 10:01:00,
2013-05-03 06:07:00,55.3,39.9,30.35,SE,134,3.0,11.0,56,0.00,,,0.00,Wunderground v.1.15,2013-05-03 10:07:00,
2013-05-03 06:13:00,55.0,39.6,30.36,SSE,150,3.0,5.0,56,0.00,,,0.00,Wunderground v.1.15,2013-05-03 10:13:00,
2013-05-03 06:19:00,54.8,39.4,30.36,ESE,105,3.0,3.0,56,0.00,,,0.00,Wunderground v.1.15,2013-05-03 10:19:00,
2013-05-03 06:25:00,54.6,39.2,30.36,East,84,3.0,3.0,56,0.00,,,0.00,Wunderground v.1.15,2013-05-03 10:25:00,
2013-05-03 06:31:00,54.4,38.6,30.37,SSE,150,3.0,3.0,55,0.00,,,0.00,Wunderground v.1.15,2013-05-03 10:31:00,
2013-05-03 06:37:00,54.1,38.3,30.36,South,190,2.0,9.0,55,0.00,,,0.00,Wunderground v.1.15,2013-05-03 10:37:00,
2013-05-03 06:43:00,54.0,38.2,30.37,SE,127,3.0,5.0,55,0.00,,,0.00,Wunderground v.1.15,2013-05-03 10:43:00,
2013-05-03 06:49:00,54.0,37.7,30.37,ESE,121,3.0,3.0,54,0.00,,,0.00,Wunderground v.1.15,2013-05-03 10:49:00,
2013-05-03 06:55:00,54.0,38.2,30.37,SE,134,3.0,6.0,55,0.00,,,0.00,Wunderground v.1.15,2013-05-03 10:55:00,
2013-05-03 07:01:00,54.0,38.2,30.37,ESE,119,3.0,13.0,55,0.00,,,0.00,Wunderground v.1.15,2013-05-03 11:01:00,
2013-05-03 07:07:00,54.1,37.3,30.37,ESE,117,4.0,13.0,53,0.00,,,0.00,Wunderground v.1.15,2013-05-03 11:07:00,
2013-05-03 07:13:00,54.1,37.8,30.37,SE,128,5.0,6.0,54,0.00,,,0.00,Wunderground v.1.15,2013-05-03 11:13:00,
2013-05-03 07:19:00,54.2,37.4,30.37,East,94,3.0,5.0,53,0.00,,,0.00,Wunderground v.1.15,2013-05-03 11:19:00,
2013-05-03 07:25:00,54.3,37.0,30.38,East,88,3.0,7.0,52,0.00,,,0.00,Wunderground v.1.15,2013-05-03 11:25:00,
2013-05-03 07:31:00,54.4,37.1,30.38,South,171,4.0,5.0,52,0.00,,,0.00,Wunderground v.1.15,2013-05-03 11:31:00,
2013-05-03 07:37:00,54.4,37.6,30.38,SE,131,4.0,6.0,53,0.00,,,0.00,Wunderground v.1.15,2013-05-03 11:37:00,
2013-05-03 07:43:00,54.6,38.3,30.38,ESE,115,3.0,4.0,54,0.00,,,0.00,Wunderground v.1.15,2013-05-03 11:43:00,
2013-05-03 07:49:00,54.8,38.0,30.38,SSE,166,3.0,3.0,53,0.00,,,0.00,Wunderground v.1.15,2013-05-03 11:49:00,
2013-05-03 07:55:00,55.1,38.3,30.38,South,182,2.0,3.0,53,0.00,,,0.00,Wunderground v.1.15,2013-05-03 11:55:00,
2013-05-03 08:01:00,55.5,38.6,30.38,NNE,27,2.0,5.0,53,0.00,,,0.00,Wunderground v.1.15,2013-05-03 12:01:00,
2013-05-03 08:07:00,55.8,38.4,30.38,ESE,121,3.0,5.0,52,0.00,,,0.00,Wunderground v.1.15,2013-05-03 12:07:00,
2013-05-03 08:13:00,56.0,38.6,30.38,NNE,14,3.0,5.0,52,0.00,,,0.00,Wunderground v.1.15,2013-05-03 12:13:00,
2013-05-03 08:19:00,56.2,38.8,30.38,NE,56,3.0,3.0,52,0.00,,,0.00,Wunderground v.1.15,2013-05-03 12:19:00,
2013-05-03 08:25:00,56.4,40.0,30.38,NE,51,2.0,3.0,54,0.00,,,0.00,Wunderground v.1.15,2013-05-03 12:25:00,
2013-05-03 08:31:00,56.6,39.2,30.38,ESE,109,2.0,3.0,52,0.00,,,0.00,Wunderground v.1.15,2013-05-03 12:31:00,
2013-05-03 08:37:00,57.1,39.6,30.38,SSE,163,2.0,5.0,52,0.00,,,0.00,Wunderground v.1.15,2013-05-03 12:37:00,
2013-05-03 08:43:00,57.6,41.5,30.38,ESE,115,2.0,3.0,55,0.00,,,0.00,Wunderground v.1.15,2013-05-03 12:43:00,
2013-05-03 08:49:00,58.0,40.0,30.38,NNW,330,3.0,4.0,51,0.00,,,0.00,Wunderground v.1.15,2013-05-03 12:49:00,
2013-05-03 08:55:00,58.9,43.2,30.38,SE,136,2.0,5.0,56,0.00,,,0.00,Wunderground v.1.15,2013-05-03 12:55:00,
2013-05-03 09:01:00,59.9,41.7,30.38,SE,146,3.0,7.0,51,0.00,,,0.00,Wunderground v.1.15,2013-05-03 13:01:00,
2013-05-03 09:07:00,60.0,41.3,30.38,SE,140,4.0,10.0,50,0.00,,,0.00,Wunderground v.1.15,2013-05-03 13:07:00,
2013-05-03 09:13:00,59.9,41.7,30.38,SE,146,3.0,5.0,51,0.00,,,0.00,Wunderground v.1.15,2013-05-03 13:13:00,
2013-05-03 09:19:00,60.9,42.6,30.38,ENE,63,3.0,3.0,51,0.00,,,0.00,Wunderground v.1.15,2013-05-03 13:19:00,
2013-05-03 09:25:00,61.8,42.4,30.38,NW,321,3.0,3.0,49,0.00,,,0.00,Wunderground v.1.15,2013-05-03 13:25:00,
2013-05-03 09:31:00,62.2,42.8,30.38,ENE,70,3.0,5.0,49,0.00,,,0.00,Wunderground v.1.15,2013-05-03 13:31:00,
2013-05-03 09:37:00,62.3,43.4,30.38,SSE,164,3.0,5.0,50,0.00,,,0.00,Wunderground v.1.15,2013-05-03 13:37:00,
2013-05-03 09:43:00,62.0,42.6,30.38,NE,47,3.0,4.0,49,0.00,,,0.00,Wunderground v.1.15,2013-05-03 13:43:00,
2013-05-03 09:49:00,61.5,41.6,30.38,NE,45,4.0,4.0,48,0.00,,,0.00,Wunderground v.1.15,2013-05-03 13:49:00,
2013-05-03 09:55:00,61.0,40.6,30.38,East,85,4.0,4.0,47,0.00,,,0.00,Wunderground v.1.15,2013-05-03 13:55:00,
2013-05-03 10:01:00,61.0,41.7,30.38,SSE,152,4.0,4.0,49,0.00,,,0.00,Wunderground v.1.15,2013-05-03 14:01:00,
2013-05-03 10:07:00,61.3,41.4,30.38,NE,40,4.0,6.0,48,0.00,,,0.00,Wunderground v.1.15,2013-05-03 14:07:00,
2013-05-03 10:13:00,61.4,43.6,30.38,ESE,105,4.0,9.0,52,0.00,,,0.00,Wunderground v.1.15,2013-05-03 14:13:00,
2013-05-03 10:19:00,61.4,42.6,30.38,ENE,71,4.0,4.0,50,0.00,,,0.00,Wunderground v.1.15,2013-05-03 14:19:00,
2013-05-03 10:25:00,61.8,43.5,30.38,NE,52,3.0,4.0,51,0.00,,,0.00,Wunderground v.1.15,2013-05-03 14:25:00,
2013-05-03 10:31:00,61.9,44.6,30.38,East,96,4.0,4.0,53,0.00,,,0.00,Wunderground v.1.15,2013-05-03 14:31:00,
2013-05-03 10:37:00,62.1,42.7,30.38,SSE,158,3.0,4.0,49,0.00,,,0.00,Wunderground v.1.15,2013-05-03 14:37:00,
2013-05-03 10:43:00,62.7,42.7,30.38,ENE,71,3.0,7.0,48,0.00,,,0.00,Wunderground v.1.15,2013-05-03 14:43:00,
2013-05-03 16:07:00,73.9,48.1,30.28,ENE,73,3.0,11.0,40,0.00,,,0.00,Wunderground v.1.15,2013-05-03 20:07:00,
2013-05-03 16:13:00,72.9,45.1,30.27,NNE,32,5.0,6.0,37,0.00,,,0.00,Wunderground v.1.15,2013-05-03 20:13:00,
2013-05-03 16:19:00,72.2,46.5,30.27,NE,49,6.0,6.0,40,0.00,,,0.00,Wunderground v.1.15,2013-05-03 20:19:00,
2013-05-03 16:25:00,72.6,50.0,30.27,NNE,30,5.0,7.0,45,0.00,,,0.00,Wunderground v.1.15,2013-05-03 20:25:00,
2013-05-03 16:31:00,72.3,45.3,30.27,NE,34,3.0,11.0,38,0.00,,,0.00,Wunderground v.1.15,2013-05-03 20:31:00,
2013-05-03 16:37:00,72.2,47.8,30.27,ENE,65,4.0,11.0,42,0.00,,,0.00,Wunderground v.1.15,2013-05-03 20:37:00,
2013-05-03 16:43:00,71.6,47.9,30.27,ENE,66,4.0,5.0,43,0.00,,,0.00,Wunderground v.1.15,2013-05-03 20:43:00,
2013-05-03 16:49:00,71.5,45.9,30.26,ENE,70,4.0,10.0,40,0.00,,,0.00,Wunderground v.1.15,2013-05-03 20:49:00,
2013-05-03 16:55:00,71.0,44.8,30.27,SSE,150,5.0,10.0,39,0.00,,,0.00,Wunderground v.1.15,2013-05-03 20:55:00,
2013-05-03 17:01:00,70.7,46.5,30.27,SE,139,6.0,7.0,42,0.00,,,0.00,Wunderground v.1.15,2013-05-03 21:01:00,
2013-05-03 17:07:00,70.6,48.2,30.27,SSE,156,4.0,7.0,45,0.00,,,0.00,Wunderground v.1.15,2013-05-03 21:07:00,
2013-05-03 17:13:00,70.6,45.7,30.27,NE,39,3.0,4.0,41,0.00,,,0.00,Wunderground v.1.15,2013-05-03 21:13:00,
2013-05-03 17:19:00,70.6,45.1,30.27,NNE,24,3.0,8.0,40,0.00,,,0.00,Wunderground v.1.15,2013-05-03 21:19:00,
2013-05-03 17:25:00,70.7,45.8,30.27,ENE,70,2.0,8.0,41,0.00,,,0.00,Wunderground v.1.15,2013-05-03 21:25:00,
2013-05-03 17:31:00,70.5,45.0,30.27,ESE,116,2.0,4.0,40,0.00,,,0.00,Wunderground v.1.15,2013-05-03 21:31:00,
2013-05-03 17:37:00,70.2,43.4,30.27,NE,54,4.0,5.0,38,0.00,,,0.00,Wunderground v.1.15,2013-05-03 21:37:00,
2013-05-03 17:43:00,69.9,43.8,30.27,East,101,5.0,5.0,39,0.00,,,0.00,Wunderground v.1.15,2013-05-03 21:43:00,
2013-05-03 17:49:00,69.8,43.0,30.26,East,101,4.0,6.0,38,0.00,,,0.00,Wunderground v.1.15,2013-05-03 21:49:00,
2013-05-03 17:55:00,69.7,44.3,30.26,ENE,67,3.0,6.0,40,0.00,,,0.00,Wunderground v.1.15,2013-05-03 21:55:00,
2013-05-03 18:01:00,69.6,42.9,30.26,NE,51,4.0,4.0,38,0.00,,,0.00,Wunderground v.1.15,2013-05-03 22:01:00,
2013-05-03 18:07:00,69.5,43.4,30.26,NE,42,4.0,5.0,39,0.00,,,0.00,Wunderground v.1.15,2013-05-03 22:07:00,
2013-05-03 18:13:00,69.4,44.0,30.26,ENE,57,3.0,7.0,40,0.00,,,0.00,Wunderground v.1.15,2013-05-03 22:13:00,
2013-05-03 18:19:00,69.2,42.5,30.26,ESE,119,2.0,2.0,38,0.00,,,0.00,Wunderground v.1.15,2013-05-03 22:19:00,
2013-05-03 18:25:00,69.0,41.6,30.27,SE,134,2.0,3.0,37,0.00,,,0.00,Wunderground v.1.15,2013-05-03 22:25:00,
2013-05-03 18:31:00,68.8,39.3,30.26,NE,42,3.0,4.0,34,0.00,,,0.00,Wunderground v.1.15,2013-05-03 22:31:00,
2013-05-03 18:37:00,68.6,41.3,30.26,NNE,30,4.0,4.0,37,0.00,,,0.00,Wunderground v.1.15,2013-05-03 22:37:00,
2013-05-03 18:43:00,68.3,40.3,30.26,NE,34,3.0,4.0,36,0.00,,,0.00,Wunderground v.1.15,2013-05-03 22:43:00,
2013-05-03 18:49:00,68.2,40.2,30.26,NE,36,1.0,2.0,36,0.00,,,0.00,Wunderground v.1.15,2013-05-03 22:49:00,
2013-05-03 18:55:00,67.9,40.7,30.26,NE,47,1.0,3.0,37,0.00,,,0.00,Wunderground v.1.15,2013-05-03 22:55:00,
2013-05-03 19:01:00,67.6,39.0,30.26,NNE,26,2.0,2.0,35,0.00,,,0.00,Wunderground v.1.15,2013-05-03 23:01:00,
2013-05-03 19:07:00,67.3,39.4,30.26,NE,46,3.0,3.0,36,0.00,,,0.00,Wunderground v.1.15,2013-05-03 23:07:00,
2013-05-03 19:13:00,67.1,38.5,30.26,ENE,59,1.0,4.0,35,0.00,,,0.00,Wunderground v.1.15,2013-05-03 23:13:00,
2013-05-03 19:19:00,66.8,39.7,30.27,NE,43,1.0,1.0,37,0.00,,,0.00,Wunderground v.1.15,2013-05-03 23:19:00,
2013-05-03 19:25:00,66.4,39.3,30.27,ESE,105,1.0,1.0,37,0.00,,,0.00,Wunderground v.1.15,2013-05-03 23:25:00,
2013-05-03 19:31:00,66.1,39.7,30.27,NE,35,1.0,3.0,38,0.00,,,0.00,Wunderground v.1.15,2013-05-03 23:31:00,
2013-05-03 19:37:00,65.7,39.4,30.27,NE,36,0.0,3.0,38,0.00,,,0.00,Wunderground v.1.15,2013-05-03 23:37:00,
2013-05-03 19:43:00,65.2,38.3,30.27,East,94,1.0,3.0,37,0.00,,,0.00,Wunderground v.1.15,2013-05-03 23:43:00,
2013-05-03 19:49:00,64.8,38.6,30.27,ENE,62,1.0,1.0,38,0.00,,,0.00,Wunderground v.1.15,2013-05-03 23:49:00,
2013-05-03 19:55:00,64.4,38.2,30.27,ENE,57,1.0,1.0,38,0.00,,,0.00,Wunderground v.1.15,2013-05-03 23:55:00,
2013-05-03 20:01:00,64.1,38.0,30.27,NE,43,1.0,1.0,38,0.00,,,0.00,Wunderground v.1.15,2013-05-04 00:01:00,
2013-05-03 20:07:00,63.7,38.9,30.27,ENE,70,1.0,2.0,40,0.00,,,0.00,Wunderground v.1.15,2013-05-04 00:07:00,
2013-05-03 20:13:00,63.2,37.8,30.27,ENE,71,0.0,1.0,39,0.00,,,0.00,Wunderground v.1.15,2013-05-04 00:13:00,
2013-05-03 20:19:00,62.7,36.7,30.27,ENE,67,0.0,0.0,38,0.00,,,0.00,Wunderground v.1.15,2013-05-04 00:19:00,
2013-05-03 20:25:00,62.4,37.1,30.27,SE,138,1.0,1.0,39,0.00,,,0.00,Wunderground v.1.15,2013-05-04 00:25:00,
2013-05-03 20:31:00,62.2,37.6,30.27,SE,136,0.0,1.0,40,0.00,,,0.00,Wunderground v.1.15,2013-05-04 00:31:00,
2013-05-03 20:37:00,61.8,37.8,30.28,SE,126,0.0,1.0,41,0.00,,,0.00,Wunderground v.1.15,2013-05-04 00:37:00,
2013-05-03 20:43:00,61.4,38.1,30.28,SE,127,0.0,3.0,42,0.00,,,0.00,Wunderground v.1.15,2013-05-04 00:43:00,
2013-05-03 20:49:00,61.0,38.3,30.28,SE,140,0.0,1.0,43,0.00,,,0.00,Wunderground v.1.15,2013-05-04 00:49:00,
2013-05-03 20:55:00,60.5,37.9,30.28,SE,141,0.0,1.0,43,0.00,,,0.00,Wunderground v.1.15,2013-05-04 00:55:00,
2013-05-03 21:01:00,59.9,38.5,30.28,SSE,159,0.0,1.0,45,0.00,,,0.00,Wunderground v.1.15,2013-05-04 01:01:00,
2013-05-03 21:07:00,59.4,38.0,30.29,East,98,0.0,1.0,45,0.00,,,0.00,Wunderground v.1.15,2013-05-04 01:07:00,
2013-05-03 21:14:00,59.0,37.7,30.29,ESE,116,0.0,0.0,45,0.00,,,0.00,Wunderground v.1.15,2013-05-04 01:14:00,
2013-05-03 21:20:00,58.8,38.6,30.29,ESE,117,0.0,0.0,47,0.00,,,0.00,Wunderground v.1.15,2013-05-04 01:20:00,
2013-05-03 21:26:00,58.4,38.2,30.29,SE,133,0.0,0.0,47,0.00,,,0.00,Wunderground v.1.15,2013-05-04 01:26:00,
2013-05-03 21:32:00,58.0,38.4,30.29,SE,140,0.0,1.0,48,0.00,,,0.00,Wunderground v.1.15,2013-05-04 01:32:00,
2013-05-03 21:38:00,57.6,38.6,30.29,SE,138,1.0,2.0,49,0.00,,,0.00,Wunderground v.1.15,2013-05-04 01:38:00,
2013-05-03 21:44:00,57.3,38.8,30.29,SE,136,1.0,2.0,50,0.00,,,0.00,Wunderground v.1.15,2013-05-04 01:44:00,
2013-05-03 21:50:00,57.0,38.0,30.29,SE,144,1.0,1.0,49,0.00,,,0.00,Wunderground v.1.15,2013-05-04 01:50:00,
2013-05-03 21:56:00,56.6,38.2,30.29,SE,144,0.0,1.0,50,0.00,,,0.00,Wunderground v.1.15,2013-05-04 01:56:00,
2013-05-03 22:02:00,56.1,37.7,30.29,SE,144,0.0,2.0,50,0.00,,,0.00,Wunderground v.1.15,2013-05-04 02:02:00,
2013-05-03 22:08:00,55.8,38.4,30.29,SE,139,0.0,2.0,52,0.00,,,0.00,Wunderground v.1.15,2013-05-04 02:08:00,
2013-05-03 22:14:00,55.4,38.5,30.29,SE,140,0.0,0.0,53,0.00,,,0.00,Wunderground v.1.15,2013-05-04 02:14:00,
2013-05-03 22:20:00,55.1,37.8,30.29,SSE,149,0.0,3.0,52,0.00,,,0.00,Wunderground v.1.15,2013-05-04 02:20:00,
2013-05-03 22:26:00,55.1,38.3,30.29,SE,143,1.0,3.0,53,0.00,,,0.00,Wunderground v.1.15,2013-05-04 02:26:00,
2013-05-03 22:32:00,55.2,38.4,30.29,SE,142,1.0,1.0,53,0.00,,,0.00,Wunderground v.1.15,2013-05-04 02:32:00,
2013-05-03 22:38:00,55.0,37.7,30.29,SSE,150,1.0,1.0,52,0.00,,,0.00,Wunderground v.1.15,2013-05-04 02:38:00,
2013-05-03 22:44:00,54.8,38.0,30.30,SE,129,1.0,4.0,53,0.00,,,0.00,Wunderground v.1.15,2013-05-04 02:44:00,
2013-05-03 22:50:00,54.6,38.3,30.30,ESE,112,1.0,1.0,54,0.00,,,0.00,Wunderground v.1.15,2013-05-04 02:50:00,
2013-05-03 22:56:00,54.4,38.1,30.29,ESE,120,1.0,2.0,54,0.00,,,0.00,Wunderground v.1.15,2013-05-04 02:56:00,
2013-05-03 23:02:00,54.2,37.4,30.30,SE,138,1.0,2.0,53,0.00,,,0.00,Wunderground v.1.15,2013-05-04 03:02:00,
2013-05-03 23:08:00,54.3,38.0,30.30,ESE,115,1.0,2.0,54,0.00,,,0.00,Wunderground v.1.15,2013-05-04 03:08:00,
2013-05-03 23:14:00,54.5,37.2,30.30,ESE,117,1.0,1.0,52,0.00,,,0.00,Wunderground v.1.15,2013-05-04 03:14:00,
2013-05-03 23:20:00,54.6,37.3,30.30,ESE,118,0.0,0.0,52,0.00,,,0.00,Wunderground v.1.15,2013-05-04 03:20:00,
2013-05-03 23:26:00,54.5,37.2,30.30,ESE,121,0.0,2.0,52,0.00,,,0.00,Wunderground v.1.15,2013-05-04 03:26:00,
2013-05-03 23:32:00,54.2,37.4,30.30,ESE,121,0.0,0.0,53,0.00,,,0.00,Wunderground v.1.15,2013-05-04 03:32:00,
2013-05-03 23:38:00,53.9,37.6,30.30,ESE,121,0.0,0.0,54,0.00,,,0.00,Wunderground v.1.15,2013-05-04 03:38:00,
2013-05-03 23:44:00,53.2,37.4,30.30,ESE,121,0.0,0.0,55,0.00,,,0.00,Wunderground v.1.15,2013-05-04 03:44:00,
2013-05-03 23:50:00,52.6,36.4,30.31,ESE,121,0.0,0.0,54,0.00,,,0.00,Wunderground v.1.15,2013-05-04 03:50:00,
2013-05-03 23:56:00,52.0,36.8,30.31,ESE,121,0.0,0.0,56,0.00,,,0.00,Wunderground v.1.15,2013-05-04 03:56:00,